User: anonymous   Login
Location: Arrakis Observatory
(44.1122°N, 95.7153°W)
Time: 09:23:57
(UTC-06:00)
Language:

Coronas F rocket - Orbit

View from above orbital plane
View from above orbital plane
View from above satellite
View from above satellite

Ground track
Ground track

The orbit data is extracted from the following two-line orbital elements,

1 26874U 01032B   16343.87280166  .00038923  00000-0  11088-3 0  9994
2 26874  82.4558  89.0519 0004176 248.6933 111.4433 15.93224649863331
Epoch (UTC): 08 December 2016 20:56:50
Eccentricity: 0.0004176
inclination: 82.4558°
perigee height: 290 km
apogee height: 296 km
right ascension of ascending node: 89.0519°
argument of perigee: 248.6933°
revolutions per day: 15.93224649
mean anomaly at epoch: 111.4433°
orbit number at epoch: 86333

The dashed part of the orbit path shows where the satellite is in the earth's shadow,  

DLR